www.pogodaiklimat.ru

Погода и климат >> Архив погоды >> ОАЭ >> Dubai


АРХИВ ПОГОДЫ в Dubai

Время (UTC), дата Ветер
(напр.,м/с)
 
Видим.   Явления Облачность Т
(С)
Тd
(С)
f
(%)
Тe
(С)
Тes
(С)
Комфортность P
(гПа)
Po
(гПа)
Тmin
(С)
Tmax
(С)
R
(мм)
S
(см)
18 20.03 В 6 8000 м пыль 10/0
[Ac trans]
+29.7 +12.5 35 +31 +31 жарко 1006.7 1006.2 +36.2
21 20.03 С 11 9000 м пыль 10/0
[Ac trans]
+25.3 +14.0 50 +28 +28 жарко 1009.8 1009.3
00 21.03 СЗ 6 10 км в посл. час дождь {гроза} 10/0
[Ac trans]
+22.5 +15.0 63 +26 +26 жарко 1013.7 1013.2 3
03 21.03 В 2 9000 м слабый дождь {гроза, ливн. осадки} 10/1 450 м
[Frnb Ac As]
+19.6 +15.9 79 +22 +22 комфорт 1014.2 1013.7
09 21.03 ЮЗ 3 10 км 10/1 750 м
[Sc Ac trans]
+20.6 +15.9 74 +24 +29 комфорт 1015.4 1014.9
12 21.03 ЮЗ 4 6000 м мгла 10/5 750 м
[Sc Ac trans]
+22.1 +16.7 71 +26 +27 душно 1014.2 1013.7
18 21.03 Ю 2 6000 м мгла 6/1 900 м
[Sc Ci fib]
+21.6 +16.8 74 +26 +26 душно 1016.1 1015.6 +22.5
21 21.03 ЮЗ 3 6000 м мгла 6/0
[Ci fib]
+20.3 +16.8 80 +24 +24 комфорт 1016.1 1015.6
03 22.03 ЮЗ 2 5000 м мгла 3/0
[Ci fib]
+18.4 +15.9 85 +19 +20 прохладно 1017.1 1016.6
06 22.03 Ю 3 7000 м пыль 6/0
[Ci sp]
+21.8 +15.3 67 +25 +34 комфорт 1018.4 1017.9 +18.3
09 22.03 З 2 8000 м пыль 8/0
[Ci sp]
+24.3 +13.7 52 +27 +42 жарко 1016.2 1015.7
15 22.03 СЗ 3 10 км 4/0
[Ci fib]
+22.4 +14.1 59 +26 +26 жарко 1014.5 1014.0
03 23.03 нст 1 8000 м мгла 1/0
[Ci fib]
+19.1 +15.0 77 +22 +22 комфорт 1015.2 1014.7
06 23.03 СВ 4 8000 м пыль 1/0
[Ac trans]
+23.4 +14.0 56 +27 +35 душно 1015.7 1015.3 +18.9
09 23.03 нст 2 10 км 4/0
[Ac trans Ci fib]
+28.6 +8.6 29 +28 +44 жарко 1013.4 1013.0
06 24.03 В 7 10 км слабый ливневой дождь, в посл. час гроза 10/4 1350 м
[Cu hum Ac trans]
+19.4 +16.7 84 +21 +22 комфорт 1017.3 1016.8 +19.3 5
09 24.03 В 9 10 км {дождь} 6/0
[Ac trans]
+25.7 +15.9 55 +29 +30 душно 1012.1 1011.6
18 24.03 СВ 6 10 км зарница {гроза, дождь} 5/1 900 м
[Cb calv Ac As]
+22.3 +16.2 68 +26 +26 жарко 1012.6 1012.2 +27.7 4
21 24.03 В 7 10 км 5/1 900 м
[Cb calv Ac und]
+23.3 +15.0 60 +27 +27 душно 1010.9 1010.5
00 25.03 СВ 6 10 км в посл. час гроза 6/1 900 м
[Cb calv Ac und]
+22.6 +17.2 72 +27 +27 душно 1010.2 1009.8
03 25.03 СЗ 9 10 км гроза, ливневой дождь 10/4 900 м
[Cb calv Ac As]
+23.0 +16.6 67 +28 +28 душно 1014.0 1013.6
06 25.03 В 6 10 км в посл. час дождь {гроза} 10/3 900 м
[Cu hum Ac As]
+21.8 +18.5 82 +27 +28 душно 1014.7 1014.2 +20.7 9
09 25.03 В 7 10 км в посл. час дождь 9/1 900 м
[Sc Ac As]
+21.9 +18.9 83 +27 +29 душно 1012.9 1012.4
12 25.03 В 7 10 км {дождь} 9/0
[Ac As]
+25.3 +18.4 66 +30 +31 душно 1009.2 1008.7 2
18 25.03 С 8 10 км слабый дождь 10/3 450 м
[Frnb Ac As]
+21.5 +18.2 81 +26 +26 душно 1015.4 1014.9 +25.8 0.6
21 25.03 С 8 10 км слабый дождь 10/3 450 м
[Frnb Ac As]
+21.5 +18.2 81 +26 +26 душно 1015.4 1014.9 +25.8 0.6
03 26.03 В 5 10 км в посл. час дождь {гроза} 10/5 240 м
[Frnb Ac trans]
+20.3 +18.1 87 +24 +24 комфорт 1015.1 1014.6
06 26.03 В 4 10 км {гроза, дождь} 6/0
[Ac trans Ci fib]
+24.9 +17.8 65 +29 +36 душно 1016.1 1015.6 +19.9 0.8
09 26.03 В 5 10 км 5/1 1050 м
[Sc diur, vesp Ci fib]
+28.7 +18.4 54 +34 +42 очень
душно
1014.7 1014.2
12 26.03 С 7 10 км 1/0
[Ac trans]
+27.1 +18.6 60 +32 +34 очень
душно
1012.9 1012.4
18 26.03 СВ 5 10 км 6/0
[Ac trans Ci fib]
+25.1 +18.2 66 +30 +30 душно 1015.2 1014.7 +29.6
21 26.03 СВ 3 10 км 5/0
[Ac trans Ci fib]
+24.5 +18.1 68 +29 +29 душно 1013.8 1013.3
00 27.03 СВ 3 10 км гроза без осадков 6/3 900 м
[Cb cap Ac trans Ci fib]
+24.0 +18.3 70 +28 +28 душно 1012.9 1012.4
09 27.03 СВ 6 10 км 6/0
[Ac trans]
+28.2 +12.8 39 +30 +35 жарко 1016.4 1015.9
15 27.03 С 5 10 км 5/0
[Ac trans]
+25.1 +17.7 64 +29 +29 душно 1015.7 1015.2

 

Местоположение метеостанции Dubai (ОАЭ): широта 25.25 долгота 55.33 высота над уровнем моря 5 м.

В архиве по умолчанию представлена погода в Dubai за последнюю неделю. Архивные данные за месяц целиком и за предыдущие месяцы, начиная с января 2011 года, Вы можете получить, выбрав интересующий диапазон дат из раскрывающегося списка и нажав кнопку "Ввод!".

Внимание! Время в таблицах - всемирное. Для получения местного времени необходимо прибавить поправку, которая в Dubai равна 4 ч.

Смотрите также архив погоды в соседних городах и на ближайших метеорологических станциях:

Погода в Sharjah (ОАЭ) (21 км)
Погода в Dubai Al Maktoum Int Airport (ОАЭ) (43 км)
Погода в Ras Al Khaimah Int Airport (ОАЭ) (73 км)
Погода в Abu Musa Island (Иран) (82 км)
Погода в Diba (Оман) (101 км)
Погода в Fujairah (ОАЭ) (102 км)
Погода в Sirri Island (Иран) (107 км)
Погода в Al Ain Int Airport (ОАЭ) (112 км)
Погода в Abu Dhabi (ОАЭ) (114 км)
Погода в Buraimi (Оман) (122 км)

Пояснения к столбцам:

Ветер - указаны скорость ветра в м/с - средняя за 10 мин, порывы в срок и между сроками (в фигурных скобках) и направление, откуда дует ветер: С - северный, СВ - северо-восточный, В - восточный, ЮВ - юго-восточный, Ю - южный, ЮЗ - юго-западный, З - западный, СЗ - северо-западный.
Видимость - горизонтальная дальность видимости в метрах или километрах. При видимости от 1 до 10 км при отсутствии осадков обычно наблюдается дымка, при ухудшении видимости до 1 км и менее - туман. В сухую погоду видимость может ухудшаться дымом, пылью или мглою.
Явления - указаны атмосферные явления, наблюдавшиеся в срок или в последний час перед сроком; фигурными скобками обозначены явления, наблюдавшиеся между сроками (за 1-3 часа до срока); квадратными скобками обозначены град или гололедные отложения с указанием их диаметра в мм.
Облачность - указаны через наклонную черту общая и нижняя облачность в баллах и высота нижней границы облаков в метрах; квадратными скобками обозначены формы облаков: Ci - перистые, Cs - перисто-слоистые, Cc - перисто-кучевые, Ac - высококучевые, As - высокослоистые, Sc - слоисто-кучевые, Ns - слоисто-дождевые, Cu - кучевые, Cb - кучево-дождевые. Подробнее классификацию облаков см. в Атласе облаков (PDF).
T - Температура воздуха - температура, измеренная на высоте 2 м над землей.
Td - Температура точки росы - температура, при понижении до которой содержащийся в воздухе водяной пар достигнет насыщения.
f - Относительная влажность воздуха - влажноcть воздуха, измеренная на высоте 2 м над землей.
Te - Эффективная температура - температура, которую ощущает одетый по сезону человек в тени. Характеристика душности погоды. При расчете учитывается влияние влажности воздуха и скорости ветра на теплоощущения человека.
Tes - Эффективная температура на солнце - температура, которую ощущает человек, с поправкой на солнечный нагрев. Характеристика знойности погоды. Зависит от высоты солнца над горизонтом, облачности и скорости ветра. Ночью, в пасмурную погоду, а также при ветре 12 м/с и более поправка равна нулю.
P - Атмосферное давление - приведенное к уровню моря атмосферное давление.
Po - Атмосферное давление - измеренное на уровне метеостанции атмосферное давление.
Tmin - Минимальная температура - минимум температуры воздуха на высоте 2 м над землей.
Tmax - Максимальная температура - максимум температуры воздуха на высоте 2 м над землей.
R - Количество осадков - Количество выпавших осадков, мм. При наведении курсора мыши на число - период времени, за который выпало указанное количество осадков.
S - Снежный покров - Высота снежного покрова, см. При наведении курсора мыши на число - состояние снежного покрова и степень покрытия местности в баллах.